Home   Weather   Clovis   Past weeks

Flag for USA Past Weather in Clovis, New Mexico, USA — Yesterday and Last 2 Weeks

Now
49 °F

Passing clouds.


Feels Like: 44 °F
Forecast: 47 / 70 °F
Wind: 10 mph from Northeast

Location: Cannon Air Force Base / Clovis

Current Time: Sep 26, 2016 at 4:29:41 AM

Latest Report: Sep 26, 2016 at 3:58 AM


Visibility: 10 mi

Pressure: 30.26 "Hg (25.86 "Hg at 1300m altitude)

Humidity: 77%

Dew Point: 42 °F

Location of ClovisLocation

Past Weather in Clovis — Graph

°F

Clovis Temperature Yesterday

Maximum temperature yesterday: 72 °F (at 3:58 PM)
Minimum temperature yesterday: 50 °F (at 11:58 PM)
Average temperature yesterday: 60 °F

High & Low Weather Summary for the Past Weeks

 TemperatureHumidityPressure
High91 °F (Sep 19, 3:58 PM)100% (Sep 11, 2:58 AM)30.29 "Hg (Sep 11, 2:58 AM)
Low49 °F (Sep 26, 1:58 AM)12% (Sep 19, 3:58 PM)29.72 "Hg (Sep 23, 4:58 PM)
Average69 °F68%29.98 "Hg
* Reported Sep 11 2:58 AM — Sep 26 2:58 AM, Clovis, Weather by CustomWeather, © 2016

Note: Actual official high and low records may vary slightly from our data, if they occured in-between our weather recording intervals... More about our weather records

Advertising

Clovis Weather History for the Previous 24 Hours

Scroll right to see more
 ConditionsComfort  
Time TempWeatherWind HumidityBarometerVisibility
2:58 AM
Mon, Sep 26
50 °FPassing clouds.10 mph72%30.26 "Hg10 mi
1:58 AM49 °FClear.9 mph76%30.28 "Hg10 mi
12:58 AM50 °FClear.8 mph76%30.29 "Hg10 mi
11:58 PM
Sun, Sep 25
50 °FClear.7 mph79%30.29 "Hg10 mi
10:58 PM50 °FClear.7 mph78%30.29 "Hg10 mi
9:58 PM53 °FPassing clouds.7 mph73%30.29 "Hg10 mi
8:58 PM54 °FPassing clouds.8 mph67%30.27 "Hg10 mi
7:58 PM60 °FPassing clouds.9 mph53%30.23 "Hg10 mi
6:58 PM64 °FPassing clouds.10 mph43%30.20 "Hg10 mi
5:58 PM68 °FMild.N/A37%30.19 "HgN/A
4:58 PM72 °FSunny.18 mph32%30.15 "Hg10 mi
3:58 PM72 °FSunny.23 mph32%30.15 "Hg10 mi
2:58 PM71 °FOvercast.23 mph34%30.16 "Hg10 mi
1:58 PM69 °FOvercast.26 mph37%30.16 "Hg10 mi
12:58 PM66 °FMostly cloudy.26 mph40%30.18 "Hg10 mi
11:58 AM64 °FOvercast.25 mph42%30.18 "Hg10 mi
10:58 AM63 °FScattered clouds.31 mph43%30.17 "Hg10 mi
9:58 AM60 °FScattered clouds.29 mph49%30.18 "Hg10 mi
8:58 AM59 °FPartly sunny.26 mph56%30.15 "Hg10 mi
7:58 AM57 °FOvercast.24 mph58%30.11 "Hg10 mi
6:58 AM55 °FSunny.21 mph62%30.08 "Hg10 mi
5:58 AM53 °FClear.16 mph67%30.03 "Hg10 mi
4:58 AM53 °FPassing clouds.14 mph52%30.00 "Hg10 mi
Weather by CustomWeather, © 2016

See weather overviewHow to use our weather pages